Location: Bukit Lungun
(2.6833°N, 113.9667°E)
Time: 11:04:41
(UTC+00:00)

Iridium 45 - Pass Details

Date: 02 March 2021
Orbit: 464 x 763 km, 86.4° (Epoch: 20 April)

Event Time Altitude Azimuth Distance (km) Brightness Sun altitude
Rises 21:11:36 0° 1° (N) 2,654 8.3 -21.3°
Reaches altitude 10° 21:13:47 10° 2° (N) 1,726 7.3 -20.8°
Maximum altitude 21:17:31 81° 89° (E) 497 4.6 -19.8°
Drops below altitude 10° 21:21:03 10° 178° (S) 1,636 7.3 -19.0°
Sets 21:23:04 0° 178° (S) 2,500 8.3 -18.5°
